TimeHDT,TemperatureF,Dew PointF,Humidity,Sea Level PressureIn,VisibilityMPH,Wind Direction,Wind SpeedMPH,Gust SpeedMPH,PrecipitationIn,Events,Conditions,WindDirDegrees,DateUTC
12:16 AM,39.2,33.8,81,30.56,-9999.0,SSE,12.7,-,N/A,,Overcast,160,2013-03-11 09:16:00
12:36 AM,39.2,33.8,81,30.56,-9999.0,SSE,6.9,20.7,N/A,,Overcast,150,2013-03-11 09:36:00
12:56 AM,39.2,33.8,81,30.57,-9999.0,SSE,11.5,-,N/A,,Overcast,160,2013-03-11 09:56:00
1:16 AM,39.2,33.8,81,30.56,-9999.0,South,13.8,19.6,N/A,,Overcast,170,2013-03-11 10:16:00
1:36 AM,39.2,33.8,81,30.56,-9999.0,SSE,11.5,17.3,N/A,,Overcast,160,2013-03-11 10:36:00
1:56 AM,39.2,33.8,81,30.57,-9999.0,SSE,11.5,21.9,N/A,,Overcast,150,2013-03-11 10:56:00
2:16 AM,39.2,33.8,81,30.57,-9999.0,SSE,11.5,-,N/A,,Overcast,150,2013-03-11 11:16:00
2:36 AM,39.2,33.8,81,30.57,-9999.0,SE,12.7,16.1,N/A,,Overcast,140,2013-03-11 11:36:00
2:56 AM,39.2,33.8,81,30.57,-9999.0,SSE,9.2,-,N/A,,Overcast,160,2013-03-11 11:56:00
3:16 AM,39.2,33.8,81,30.58,-9999.0,ESE,10.4,-,N/A,,Overcast,120,2013-03-11 12:16:00
3:36 AM,39.2,33.8,81,30.58,-9999.0,SE,10.4,-,N/A,,Overcast,130,2013-03-11 12:36:00
3:56 AM,39.2,33.8,81,30.57,-9999.0,SSE,6.9,-,N/A,,Overcast,160,2013-03-11 12:56:00
4:16 AM,39.2,33.8,81,30.57,-9999.0,East,9.2,-,N/A,,Overcast,90,2013-03-11 13:16:00
4:36 AM,39.2,33.8,81,30.58,-9999.0,ESE,9.2,-,N/A,,Overcast,120,2013-03-11 13:36:00
4:56 AM,39.2,33.8,81,30.57,-9999.0,SSE,10.4,-,N/A,,Overcast,150,2013-03-11 13:56:00
5:16 AM,39.2,33.8,81,30.57,-9999.0,SSE,11.5,-,N/A,,Overcast,160,2013-03-11 14:16:00
5:36 AM,39.2,33.8,81,30.57,-9999.0,SSE,11.5,-,N/A,,Overcast,160,2013-03-11 14:36:00
5:56 AM,39.2,33.8,81,30.56,-9999.0,South,16.1,19.6,N/A,,Mostly Cloudy,170,2013-03-11 14:56:00
6:16 AM,39.2,33.8,81,30.56,-9999.0,South,16.1,-,N/A,,Scattered Clouds,170,2013-03-11 15:16:00
6:36 AM,39.2,33.8,81,30.56,-9999.0,South,17.3,21.9,N/A,,Partly Cloudy,170,2013-03-11 15:36:00
6:56 AM,37.4,33.8,87,30.57,-9999.0,South,13.8,19.6,N/A,,Unknown,170,2013-03-11 15:56:00
7:16 AM,37.4,33.8,87,30.57,-9999.0,South,15.0,-,N/A,,Unknown,170,2013-03-11 16:16:00
7:36 AM,37.4,33.8,87,30.57,-9999.0,South,16.1,21.9,N/A,,Unknown,170,2013-03-11 16:36:00
7:56 AM,37.4,33.8,87,30.58,-9999.0,South,16.1,-,N/A,,Unknown,170,2013-03-11 16:56:00
8:16 AM,37.4,33.8,87,30.58,-9999.0,South,11.5,-,N/A,,Mostly Cloudy,170,2013-03-11 17:16:00
8:36 AM,37.4,33.8,87,30.58,-9999.0,South,13.8,-,N/A,,Overcast,170,2013-03-11 17:36:00
8:56 AM,37.4,33.8,87,30.58,-9999.0,South,11.5,-,N/A,,Unknown,180,2013-03-11 17:56:00
9:16 AM,37.4,33.8,87,30.58,-9999.0,South,13.8,-,N/A,,Unknown,170,2013-03-11 18:16:00
9:36 AM,37.4,32.0,81,30.59,-9999.0,South,12.7,-,N/A,,Clear,170,2013-03-11 18:36:00
9:56 AM,37.4,33.8,87,30.59,-9999.0,SE,11.5,-,N/A,,Unknown,140,2013-03-11 18:56:00
10:16 AM,39.2,33.8,81,30.59,-9999.0,ESE,8.1,-,N/A,,Scattered Clouds,120,2013-03-11 19:16:00
10:36 AM,39.2,33.8,81,30.58,-9999.0,SSE,12.7,-,N/A,,Scattered Clouds,150,2013-03-11 19:36:00
10:56 AM,39.2,33.8,81,30.60,-9999.0,East,9.2,-,N/A,,Clear,80,2013-03-11 19:56:00
11:16 AM,39.2,33.8,81,30.60,-9999.0,ENE,10.4,-,N/A,,Mostly Cloudy,60,2013-03-11 20:16:00
11:36 AM,39.2,33.8,81,30.60,-9999.0,SE,10.4,-,N/A,,Overcast,130,2013-03-11 20:36:00
11:56 AM,39.2,33.8,81,30.60,-9999.0,Calm,Calm,-,N/A,,Overcast,0,2013-03-11 20:56:00
12:16 PM,41.0,33.8,76,30.60,-9999.0,NE,6.9,-,N/A,,Mostly Cloudy,40,2013-03-11 21:16:00
12:36 PM,39.2,35.6,87,30.60,-9999.0,East,10.4,-,N/A,,Mostly Cloudy,80,2013-03-11 21:36:00
12:56 PM,41.0,35.6,81,30.60,-9999.0,ENE,10.4,-,N/A,,Mostly Cloudy,70,2013-03-11 21:56:00
1:16 PM,41.0,35.6,81,30.60,-9999.0,East,6.9,-,N/A,,Mostly Cloudy,80,2013-03-11 22:16:00
1:36 PM,42.8,35.6,76,30.60,-9999.0,East,4.6,-,N/A,,Overcast,100,2013-03-11 22:36:00
1:56 PM,41.0,33.8,76,30.60,-9999.0,ENE,6.9,-,N/A,,Overcast,70,2013-03-11 22:56:00
2:16 PM,41.0,35.6,81,30.59,-9999.0,ESE,5.8,-,N/A,,Overcast,120,2013-03-11 23:16:00
2:36 PM,41.0,35.6,81,30.59,-9999.0,ESE,5.8,-,N/A,,Mostly Cloudy,110,2013-03-11 23:36:00
2:56 PM,42.8,35.6,76,30.58,-9999.0,ESE,9.2,-,N/A,,Scattered Clouds,110,2013-03-11 23:56:00
3:16 PM,42.8,33.8,70,30.58,-9999.0,SE,9.2,-,N/A,,Clear,130,2013-03-12 00:16:00
3:36 PM,42.8,35.6,76,30.58,-9999.0,SE,9.2,-,N/A,,Clear,140,2013-03-12 00:36:00
3:56 PM,42.8,35.6,76,30.57,-9999.0,SE,6.9,-,N/A,,Mostly Cloudy,140,2013-03-12 00:56:00
4:16 PM,42.8,35.6,76,30.56,-9999.0,Calm,Calm,-,N/A,,Overcast,0,2013-03-12 01:16:00
4:36 PM,41.0,33.8,76,30.56,-9999.0,SE,8.1,-,N/A,,Overcast,140,2013-03-12 01:36:00
4:56 PM,41.0,33.8,76,30.56,-9999.0,SSE,10.4,-,N/A,,Mostly Cloudy,160,2013-03-12 01:56:00
5:16 PM,41.0,33.8,76,30.55,-9999.0,South,6.9,-,N/A,,Partly Cloudy,170,2013-03-12 02:16:00
5:36 PM,41.0,33.8,76,30.55,-9999.0,SSE,10.4,-,N/A,,Clear,150,2013-03-12 02:36:00
5:56 PM,41.0,33.8,76,30.55,-9999.0,SSE,6.9,-,N/A,,Clear,160,2013-03-12 02:56:00
6:16 PM,41.0,33.8,76,30.54,-9999.0,SSE,9.2,-,N/A,,Clear,150,2013-03-12 03:16:00
6:36 PM,39.2,33.8,81,30.54,-9999.0,South,10.4,-,N/A,,Clear,170,2013-03-12 03:36:00
6:56 PM,39.2,33.8,81,30.54,-9999.0,SE,8.1,-,N/A,,Mostly Cloudy,140,2013-03-12 03:56:00
7:16 PM,39.2,33.8,81,30.53,-9999.0,SSE,6.9,-,N/A,,Overcast,150,2013-03-12 04:16:00
7:36 PM,39.2,33.8,81,30.53,-9999.0,SSE,9.2,-,N/A,,Mostly Cloudy,160,2013-03-12 04:36:00
7:56 PM,37.4,33.8,87,30.53,-9999.0,SSE,8.1,-,N/A,,Unknown,150,2013-03-12 04:56:00
8:16 PM,37.4,33.8,87,30.53,-9999.0,SSE,9.2,-,N/A,,Unknown,160,2013-03-12 05:16:00
8:36 PM,37.4,33.8,87,30.53,-9999.0,SSE,9.2,-,N/A,,Unknown,160,2013-03-12 05:36:00
9:16 PM,37.4,33.8,87,30.53,-9999.0,South,5.8,-,N/A,,Unknown,180,2013-03-12 06:16:00
9:36 PM,37.4,33.8,87,30.53,-9999.0,Calm,Calm,-,N/A,,Unknown,0,2013-03-12 06:36:00
9:56 PM,37.4,33.8,87,30.53,-9999.0,SE,4.6,-,N/A,,Unknown,140,2013-03-12 06:56:00
10:16 PM,37.4,32.0,81,30.53,-9999.0,Calm,Calm,-,N/A,,Mostly Cloudy,0,2013-03-12 07:16:00
10:36 PM,35.6,32.0,87,30.53,-9999.0,South,5.8,-,N/A,,Overcast,180,2013-03-12 07:36:00
10:56 PM,35.6,30.2,81,30.53,-9999.0,SSE,4.6,-,N/A,,Mostly Cloudy,150,2013-03-12 07:56:00
11:16 PM,35.6,33.8,93,30.53,-9999.0,SSE,5.8,-,N/A,,Unknown,150,2013-03-12 08:16:00
11:36 PM,37.4,32.0,81,30.53,-9999.0,SSE,3.5,-,N/A,,Mostly Cloudy,150,2013-03-12 08:36:00
11:56 PM,37.4,32.0,81,30.52,-9999.0,SSE,9.2,16.1,N/A,,Overcast,160,2013-03-12 08:56:00